Time,TemperatureF,DewpointF,PressureIn,WindDirection,WindDirectionDegrees,WindSpeedMPH,WindSpeedGustMPH,Humidity,HourlyPrecipIn,Conditions,Clouds,dailyrainin,SoftwareType,DateUTC
2013-02-24 00:04:00,43.7,12.8,30.15,North,10,4.3,9.2,28,-99.99,,,-99.99,WSDL version 423,2013-02-24 08:04:00,
2013-02-24 00:09:00,43.6,12.6,30.15,North,6,4.3,8.1,28,-99.99,,,-99.99,WSDL version 423,2013-02-24 08:09:00,
2013-02-24 00:14:00,43.6,12.6,30.15,North,8,4.1,8.1,28,-99.99,,,-99.99,WSDL version 423,2013-02-24 08:14:00,
2013-02-24 00:19:00,43.6,12.7,30.15,NNW,345,5.5,9.6,28,-99.99,,,-99.99,WSDL version 423,2013-02-24 08:19:00,
2013-02-24 00:24:00,43.7,12.7,30.15,NNW,329,5.9,9.6,28,-99.99,,,-99.99,WSDL version 423,2013-02-24 08:24:00,
2013-02-24 00:29:00,43.5,12.5,30.15,NNW,348,6.8,9.6,28,-99.99,,,-99.99,WSDL version 423,2013-02-24 08:29:00,
2013-02-24 00:34:00,43.6,12.6,30.15,NNW,340,6.8,9.6,28,-99.99,,,-99.99,WSDL version 423,2013-02-24 08:34:00,
2013-02-24 00:39:00,43.5,12.6,30.15,NNW,343,7.1,10.5,28,-99.99,,,-99.99,WSDL version 423,2013-02-24 08:39:00,
2013-02-24 00:44:00,43.4,12.5,30.15,NNW,335,5.8,10.5,28,-99.99,,,-99.99,WSDL version 423,2013-02-24 08:44:00,
2013-02-24 00:49:00,43.5,12.5,30.15,NNW,340,8.7,12.3,28,-99.99,,,-99.99,WSDL version 423,2013-02-24 08:49:00,
2013-02-24 00:54:00,43.8,12.8,30.15,NNW,343,8.8,15.0,28,-99.99,,,-99.99,WSDL version 423,2013-02-24 08:54:00,
2013-02-24 00:59:00,44.2,13.2,30.15,NNW,335,9.0,15.4,28,-99.99,,,-99.99,WSDL version 423,2013-02-24 08:59:00,
2013-02-24 01:04:00,43.4,12.4,30.15,NW,313,7.4,15.4,28,-99.99,,,-99.99,WSDL version 423,2013-02-24 09:04:00,
2013-02-24 01:09:00,42.7,11.9,30.15,NW,309,6.4,10.5,28,-99.99,,,-99.99,WSDL version 423,2013-02-24 09:09:00,
2013-02-24 01:15:00,42.2,11.4,30.30,WNW,293,7.4,10.5,28,-99.99,,,-99.99,WSDL version 423,2013-02-24 09:15:00,
2013-02-24 01:20:00,41.7,11.0,30.30,NW,315,7.5,12.3,28,-99.99,,,-99.99,WSDL version 423,2013-02-24 09:20:00,
2013-02-24 01:25:00,41.6,10.9,30.30,WNW,298,8.5,12.3,28,-99.99,,,-99.99,WSDL version 423,2013-02-24 09:25:00,
2013-02-24 01:30:00,41.2,10.5,30.15,NW,304,7.2,10.5,28,-99.99,,,-99.99,WSDL version 423,2013-02-24 09:30:00,
2013-02-24 01:35:00,41.2,10.5,30.15,WNW,295,6.9,11.0,28,-99.99,,,-99.99,WSDL version 423,2013-02-24 09:35:00,
2013-02-24 01:40:00,41.6,10.9,30.15,NW,309,7.6,11.0,28,-99.99,,,-99.99,WSDL version 423,2013-02-24 09:40:00,
2013-02-24 01:45:00,41.8,11.0,30.15,NW,318,5.3,14.1,28,-99.99,,,-99.99,WSDL version 423,2013-02-24 09:45:00,
2013-02-24 01:50:00,41.3,10.6,30.15,NW,318,5.1,14.5,28,-99.99,,,-99.99,WSDL version 423,2013-02-24 09:50:00,
2013-02-24 01:55:00,41.2,10.5,30.15,NNW,329,4.9,14.5,28,-99.99,,,-99.99,WSDL version 423,2013-02-24 09:55:00,
2013-02-24 02:00:00,41.0,10.6,30.15,NW,315,5.0,7.6,29,-99.99,,,-99.99,WSDL version 423,2013-02-24 10:00:00,
2013-02-24 02:05:00,41.0,10.5,30.15,NW,318,5.8,8.1,28,-99.99,,,-99.99,WSDL version 423,2013-02-24 10:05:00,
2013-02-24 02:11:00,40.9,10.6,30.15,NW,323,5.0,8.3,29,-99.99,,,-99.99,WSDL version 423,2013-02-24 10:11:00,
2013-02-24 02:16:00,41.1,10.6,30.15,NNW,329,6.7,8.3,28,-99.99,,,-99.99,WSDL version 423,2013-02-24 10:16:00,
2013-02-24 02:21:00,41.5,10.9,30.15,NNW,335,8.1,15.4,28,-99.99,,,-99.99,WSDL version 423,2013-02-24 10:21:00,
2013-02-24 02:26:00,41.6,10.9,30.15,NNW,332,10.9,15.4,28,-99.99,,,-99.99,WSDL version 423,2013-02-24 10:26:00,
2013-02-24 02:31:00,42.2,11.4,30.12,NNW,333,11.1,17.4,28,-99.99,,,-99.99,WSDL version 423,2013-02-24 10:31:00,
2013-02-24 02:36:00,42.4,11.6,30.12,NNW,335,9.9,17.4,28,-99.99,,,-99.99,WSDL version 423,2013-02-24 10:36:00,
2013-02-24 02:41:00,42.5,11.7,30.12,NNW,346,10.2,17.4,28,-99.99,,,-99.99,WSDL version 423,2013-02-24 10:41:00,
2013-02-24 02:46:00,42.7,11.8,30.12,NNW,338,11.5,17.4,28,-99.99,,,-99.99,WSDL version 423,2013-02-24 10:46:00,
2013-02-24 02:51:00,42.8,11.9,30.12,NNW,335,9.7,17.4,28,-99.99,,,-99.99,WSDL version 423,2013-02-24 10:51:00,
2013-02-24 02:56:00,42.8,11.9,30.12,NNW,335,10.0,16.8,28,-99.99,,,-99.99,WSDL version 423,2013-02-24 10:56:00,
2013-02-24 03:01:00,42.4,11.6,30.12,NNW,329,8.8,14.5,28,-99.99,,,-99.99,WSDL version 423,2013-02-24 11:01:00,
2013-02-24 03:06:00,42.3,11.5,30.12,NNW,340,10.1,15.4,28,-99.99,,,-99.99,WSDL version 423,2013-02-24 11:06:00,
2013-02-24 03:11:00,42.7,11.8,30.12,NNW,338,11.3,15.4,28,-99.99,,,-99.99,WSDL version 423,2013-02-24 11:11:00,
2013-02-24 03:16:00,42.4,11.6,30.12,North,349,10.7,15.4,28,-99.99,,,-99.99,WSDL version 423,2013-02-24 11:16:00,
2013-02-24 03:21:00,42.3,11.5,30.12,NNW,345,10.8,16.8,28,-99.99,,,-99.99,WSDL version 423,2013-02-24 11:21:00,
2013-02-24 03:26:00,42.3,11.5,30.12,NNW,332,8.8,17.4,28,-99.99,,,-99.99,WSDL version 423,2013-02-24 11:26:00,
2013-02-24 03:31:00,42.0,11.3,30.12,NNW,340,9.7,18.8,28,-99.99,,,-99.99,WSDL version 423,2013-02-24 11:31:00,
2013-02-24 03:36:00,42.1,11.3,30.12,NW,318,9.2,18.8,28,-99.99,,,-99.99,WSDL version 423,2013-02-24 11:36:00,
2013-02-24 03:41:00,40.7,10.1,30.12,WNW,298,7.5,13.6,28,-99.99,,,-99.99,WSDL version 423,2013-02-24 11:41:00,
2013-02-24 03:46:00,39.5,9.1,30.15,WNW,293,8.2,11.4,28,-99.99,,,-99.99,WSDL version 423,2013-02-24 11:46:00,
2013-02-24 03:51:00,38.6,9.1,30.15,WNW,290,7.3,11.4,29,-99.99,,,-99.99,WSDL version 423,2013-02-24 11:51:00,
2013-02-24 03:56:00,39.0,9.3,30.15,NW,308,8.0,10.5,28,-99.99,,,-99.99,WSDL version 423,2013-02-24 11:56:00,
2013-02-24 04:01:00,39.4,9.2,30.12,WNW,287,6.5,10.5,29,-99.99,,,-99.99,WSDL version 423,2013-02-24 12:01:00,
2013-02-24 04:06:00,38.7,9.1,30.12,WNW,293,6.5,10.5,29,-99.99,,,-99.99,WSDL version 423,2013-02-24 12:06:00,
2013-02-24 04:11:00,38.2,8.7,30.12,WNW,293,5.6,8.7,29,-99.99,,,-99.99,WSDL version 423,2013-02-24 12:11:00,
2013-02-24 04:16:00,37.6,8.2,30.15,NW,315,2.7,8.3,29,-99.99,,,-99.99,WSDL version 423,2013-02-24 12:16:00,
2013-02-24 04:21:00,39.2,9.2,30.15,NNW,340,8.4,11.0,28,-99.99,,,-99.99,WSDL version 423,2013-02-24 12:21:00,
2013-02-24 04:26:00,41.5,10.8,30.15,North,360,7.7,12.3,28,-99.99,,,-99.99,WSDL version 423,2013-02-24 12:26:00,
2013-02-24 04:31:00,42.1,11.3,30.12,NNW,343,9.8,12.8,28,-99.99,,,-99.99,WSDL version 423,2013-02-24 12:31:00,
2013-02-24 04:36:00,42.2,11.4,30.12,NNW,338,8.8,13.2,28,-99.99,,,-99.99,WSDL version 423,2013-02-24 12:36:00,
2013-02-24 04:41:00,42.5,11.7,30.12,NNW,345,9.9,13.2,28,-99.99,,,-99.99,WSDL version 423,2013-02-24 12:41:00,
2013-02-24 04:47:00,41.7,11.0,30.15,NNW,338,8.8,12.8,28,-99.99,,,-99.99,WSDL version 423,2013-02-24 12:47:00,
2013-02-24 04:52:00,41.2,10.5,30.15,NNW,328,6.4,12.3,28,-99.99,,,-99.99,WSDL version 423,2013-02-24 12:52:00,
2013-02-24 04:57:00,40.6,10.1,30.15,NW,326,5.8,10.1,28,-99.99,,,-99.99,WSDL version 423,2013-02-24 12:57:00,
2013-02-24 05:02:00,40.2,9.7,30.15,NNW,330,4.9,8.1,28,-99.99,,,-99.99,WSDL version 423,2013-02-24 13:02:00,
2013-02-24 05:07:00,40.3,9.7,30.15,NW,323,4.6,7.2,28,-99.99,,,-99.99,WSDL version 423,2013-02-24 13:07:00,
2013-02-24 05:12:00,39.9,9.4,30.15,NW,305,5.5,8.7,28,-99.99,,,-99.99,WSDL version 423,2013-02-24 13:12:00,
2013-02-24 05:17:00,39.9,9.4,30.15,NW,315,5.8,8.7,28,-99.99,,,-99.99,WSDL version 423,2013-02-24 13:17:00,
2013-02-24 05:22:00,39.8,9.4,30.15,NNW,335,5.4,8.7,28,-99.99,,,-99.99,WSDL version 423,2013-02-24 13:22:00,
2013-02-24 05:28:00,39.6,9.2,30.15,NNW,338,4.2,8.1,28,-99.99,,,-99.99,WSDL version 423,2013-02-24 13:28:00,
2013-02-24 05:33:00,39.3,8.9,30.15,NW,310,6.5,9.2,28,-99.99,,,-99.99,WSDL version 423,2013-02-24 13:33:00,
2013-02-24 05:38:00,39.2,8.8,30.15,NW,323,4.7,9.2,28,-99.99,,,-99.99,WSDL version 423,2013-02-24 13:38:00,
2013-02-24 05:43:00,39.1,9.1,30.15,NNW,329,5.6,8.3,28,-99.99,,,-99.99,WSDL version 423,2013-02-24 13:43:00,
2013-02-24 05:48:00,38.8,9.2,30.18,NNW,328,3.6,8.3,29,-99.99,,,-99.99,WSDL version 423,2013-02-24 13:48:00,
2013-02-24 05:54:00,38.6,9.1,30.18,NNW,338,3.7,6.3,29,-99.99,,,-99.99,WSDL version 423,2013-02-24 13:54:00,
2013-02-24 05:59:00,38.5,9.0,30.18,NNW,343,4.7,6.3,29,-99.99,,,-99.99,WSDL version 423,2013-02-24 13:59:00,
2013-02-24 06:04:00,38.7,9.1,30.18,NNW,340,4.8,6.3,29,-99.99,,,-99.99,WSDL version 423,2013-02-24 14:04:00,
2013-02-24 06:10:00,38.4,8.9,30.18,NNW,343,2.9,6.3,29,-99.99,,,-99.99,WSDL version 423,2013-02-24 14:10:00,
2013-02-24 06:15:00,37.9,8.5,30.18,North,353,3.9,5.4,29,-99.99,,,-99.99,WSDL version 423,2013-02-24 14:15:00,
2013-02-24 06:20:00,37.3,7.9,30.18,NNE,23,2.2,4.9,29,-99.99,,,-99.99,WSDL version 423,2013-02-24 14:20:00,
2013-02-24 06:25:00,37.0,8.3,30.18,NNE,23,2.7,4.9,30,-99.99,,,-99.99,WSDL version 423,2013-02-24 14:25:00,
2013-02-24 06:30:00,37.2,8.5,30.18,North,8,4.4,5.8,30,-99.99,,,-99.99,WSDL version 423,2013-02-24 14:30:00,
2013-02-24 06:36:00,37.2,8.6,30.18,North,360,4.4,8.3,30,-99.99,,,-99.99,WSDL version 423,2013-02-24 14:36:00,
2013-02-24 06:42:00,37.3,8.2,30.18,NNW,332,4.6,8.3,29,-99.99,,,-99.99,WSDL version 423,2013-02-24 14:42:00,
2013-02-24 06:47:00,37.5,8.1,30.18,NNW,335,5.4,8.3,29,-99.99,,,-99.99,WSDL version 423,2013-02-24 14:47:00,
2013-02-24 06:52:00,37.5,8.1,30.18,NNW,338,5.1,8.1,29,-99.99,,,-99.99,WSDL version 423,2013-02-24 14:52:00,
2013-02-24 06:58:00,37.4,8.0,30.18,NNW,333,5.1,8.3,29,-99.99,,,-99.99,WSDL version 423,2013-02-24 14:58:00,
2013-02-24 07:03:00,37.7,8.3,30.18,NW,323,7.2,8.3,29,-99.99,,,-99.99,WSDL version 423,2013-02-24 15:03:00,
2013-02-24 07:08:00,38.3,8.8,30.18,NW,318,7.5,10.5,29,-99.99,,,-99.99,WSDL version 423,2013-02-24 15:08:00,
2013-02-24 07:13:00,38.7,9.2,30.18,NW,326,5.8,10.5,29,-99.99,,,-99.99,WSDL version 423,2013-02-24 15:13:00,
2013-02-24 07:18:00,39.1,9.6,30.18,NNW,328,6.6,8.7,29,-99.99,,,-99.99,WSDL version 423,2013-02-24 15:18:00,
2013-02-24 07:24:00,39.8,10.1,30.18,NW,312,8.5,11.0,29,-99.99,,,-99.99,WSDL version 423,2013-02-24 15:24:00,
2013-02-24 07:29:00,40.2,10.5,30.21,NW,315,7.3,12.3,29,-99.99,,,-99.99,WSDL version 423,2013-02-24 15:29:00,
2013-02-24 07:34:00,40.8,10.7,30.21,NW,312,8.4,12.3,28,-99.99,,,-99.99,WSDL version 423,2013-02-24 15:34:00,
2013-02-24 07:39:00,41.2,10.5,30.21,NW,315,9.5,13.2,28,-99.99,,,-99.99,WSDL version 423,2013-02-24 15:39:00,
2013-02-24 07:44:00,41.4,10.8,30.21,NW,313,9.0,13.2,28,-99.99,,,-99.99,WSDL version 423,2013-02-24 15:44:00,
2013-02-24 07:49:00,41.6,10.9,30.21,NW,307,7.7,11.9,28,-99.99,,,-99.99,WSDL version 423,2013-02-24 15:49:00,
2013-02-24 07:54:00,41.8,11.1,30.21,NW,318,8.1,11.0,28,-99.99,,,-99.99,WSDL version 423,2013-02-24 15:54:00,
2013-02-24 07:59:00,42.3,11.5,30.21,NW,312,5.8,11.0,28,-99.99,,,-99.99,WSDL version 423,2013-02-24 15:59:00,
2013-02-24 08:04:00,42.8,11.9,30.21,NNW,330,6.7,11.0,28,-99.99,,,-99.99,WSDL version 423,2013-02-24 16:04:00,
2013-02-24 08:09:00,43.3,12.4,30.21,NW,312,4.7,10.5,28,-99.99,,,-99.99,WSDL version 423,2013-02-24 16:09:00,
2013-02-24 08:14:00,43.7,12.7,30.21,NW,310,5.4,8.7,28,-99.99,,,-99.99,WSDL version 423,2013-02-24 16:14:00,
2013-02-24 08:19:00,44.1,13.1,30.21,North,350,5.0,8.7,28,-99.99,,,-99.99,WSDL version 423,2013-02-24 16:19:00,
2013-02-24 08:24:00,44.7,12.9,30.21,NNW,329,5.8,8.7,27,-99.99,,,-99.99,WSDL version 423,2013-02-24 16:24:00,
2013-02-24 08:29:00,45.1,13.1,30.21,NW,320,8.2,11.4,27,-99.99,,,-99.99,WSDL version 423,2013-02-24 16:29:00,
2013-02-24 08:34:00,45.3,13.3,30.21,NNW,343,8.1,12.3,27,-99.99,,,-99.99,WSDL version 423,2013-02-24 16:34:00,
2013-02-24 08:39:00,45.9,13.9,30.21,NNW,333,8.4,13.2,27,-99.99,,,-99.99,WSDL version 423,2013-02-24 16:39:00,
2013-02-24 08:44:00,46.0,13.9,30.24,NNW,328,7.3,13.2,27,-99.99,,,-99.99,WSDL version 423,2013-02-24 16:44:00,
2013-02-24 08:49:00,46.3,14.2,30.24,North,358,6.5,12.8,27,-99.99,,,-99.99,WSDL version 423,2013-02-24 16:49:00,
2013-02-24 08:54:00,46.7,14.5,30.24,NNW,338,6.0,12.8,27,-99.99,,,-99.99,WSDL version 423,2013-02-24 16:54:00,
2013-02-24 08:59:00,46.9,14.7,30.21,North,355,7.8,11.0,27,-99.99,,,-99.99,WSDL version 423,2013-02-24 16:59:00,
2013-02-24 09:04:00,47.2,14.9,30.21,NNW,343,7.3,12.8,27,-99.99,,,-99.99,WSDL version 423,2013-02-24 17:04:00,
2013-02-24 09:09:00,47.5,15.2,30.21,NNW,335,7.0,12.8,27,-99.99,,,-99.99,WSDL version 423,2013-02-24 17:09:00,
2013-02-24 09:14:00,48.0,15.1,30.21,NNW,340,7.1,11.0,26,-99.99,,,-99.99,WSDL version 423,2013-02-24 17:14:00,
2013-02-24 09:19:00,47.9,13.8,30.21,North,354,9.7,14.5,24,-99.99,,,-99.99,WSDL version 423,2013-02-24 17:19:00,
2013-02-24 09:24:00,48.1,13.5,30.21,North,3,7.8,14.5,24,-99.99,,,-99.99,WSDL version 423,2013-02-24 17:24:00,
2013-02-24 09:29:00,48.7,14.3,30.21,NNW,340,7.8,10.5,24,-99.99,,,-99.99,WSDL version 423,2013-02-24 17:29:00,
2013-02-24 09:34:00,48.4,14.5,30.21,NNW,328,6.4,10.5,26,-99.99,,,-99.99,WSDL version 423,2013-02-24 17:34:00,
2013-02-24 09:39:00,49.0,14.7,30.21,NNW,338,7.4,12.8,24,-99.99,,,-99.99,WSDL version 423,2013-02-24 17:39:00,
2013-02-24 09:44:00,48.9,14.0,30.21,NNW,338,7.3,12.8,24,-99.99,,,-99.99,WSDL version 423,2013-02-24 17:44:00,
2013-02-24 09:49:00,49.3,14.0,30.21,NNE,17,6.7,12.8,24,-99.99,,,-99.99,WSDL version 423,2013-02-24 17:49:00,
2013-02-24 09:54:00,49.2,13.9,30.21,North,3,6.3,13.2,24,-99.99,,,-99.99,WSDL version 423,2013-02-24 17:54:00,
2013-02-24 09:59:00,49.6,14.3,30.21,North,353,7.6,13.2,24,-99.99,,,-99.99,WSDL version 423,2013-02-24 17:59:00,
2013-02-24 10:04:00,49.9,14.9,30.21,NW,315,7.9,11.0,24,-99.99,,,-99.99,WSDL version 423,2013-02-24 18:04:00,
2013-02-24 10:09:00,50.6,15.2,30.21,NNW,328,7.6,11.0,24,-99.99,,,-99.99,WSDL version 423,2013-02-24 18:09:00,
2013-02-24 10:14:00,50.7,15.2,30.21,NNW,348,9.8,15.0,24,-99.99,,,-99.99,WSDL version 423,2013-02-24 18:14:00,
2013-02-24 10:19:00,50.4,15.0,30.21,WNW,293,9.0,15.0,24,-99.99,,,-99.99,WSDL version 423,2013-02-24 18:19:00,
2013-02-24 10:24:00,50.6,15.2,30.21,NNE,15,6.7,14.5,24,-99.99,,,-99.99,WSDL version 423,2013-02-24 18:24:00,
2013-02-24 10:29:00,51.0,15.5,30.21,North,3,5.0,8.7,24,-99.99,,,-99.99,WSDL version 423,2013-02-24 18:29:00,
2013-02-24 10:34:00,51.7,15.4,30.21,North,8,8.6,11.9,24,-99.99,,,-99.99,WSDL version 423,2013-02-24 18:34:00,
2013-02-24 10:39:00,51.6,15.6,30.21,NNE,15,8.3,12.8,23,-99.99,,,-99.99,WSDL version 423,2013-02-24 18:39:00,
2013-02-24 10:44:00,52.9,16.1,30.21,NE,50,7.3,12.8,23,-99.99,,,-99.99,WSDL version 423,2013-02-24 18:44:00,
2013-02-24 10:49:00,53.2,16.4,30.21,NE,40,5.4,10.1,23,-99.99,,,-99.99,WSDL version 423,2013-02-24 18:49:00,
2013-02-24 10:54:00,53.2,16.4,30.21,ENE,65,7.1,15.4,23,-99.99,,,-99.99,WSDL version 423,2013-02-24 18:54:00,
2013-02-24 10:59:00,53.0,16.2,30.21,ENE,63,6.7,15.4,23,-99.99,,,-99.99,WSDL version 423,2013-02-24 18:59:00,
2013-02-24 11:04:00,53.2,14.7,30.21,NNE,25,4.2,10.5,21,-99.99,,,-99.99,WSDL version 423,2013-02-24 19:04:00,
2013-02-24 11:10:00,53.9,15.1,30.21,ENE,75,7.8,14.5,20,-99.99,,,-99.99,WSDL version 423,2013-02-24 19:10:00,
2013-02-24 11:15:00,53.6,13.8,30.21,NE,37,5.9,12.8,21,-99.99,,,-99.99,WSDL version 423,2013-02-24 19:15:00,
2013-02-24 11:20:00,53.9,14.2,30.21,East,85,5.6,10.1,20,-99.99,,,-99.99,WSDL version 423,2013-02-24 19:20:00,
2013-02-24 11:25:00,54.5,14.3,30.21,ENE,65,6.3,10.5,20,-99.99,,,-99.99,WSDL version 423,2013-02-24 19:25:00,
2013-02-24 11:30:00,54.5,14.4,30.18,North,10,7.2,10.5,21,-99.99,,,-99.99,WSDL version 423,2013-02-24 19:30:00,
2013-02-24 11:35:00,54.4,14.1,30.18,ENE,75,7.5,11.0,20,-99.99,,,-99.99,WSDL version 423,2013-02-24 19:35:00,
2013-02-24 11:40:00,54.3,14.1,30.18,ENE,65,9.9,12.3,20,-99.99,,,-99.99,WSDL version 423,2013-02-24 19:40:00,
2013-02-24 11:45:00,54.3,14.1,30.18,East,95,6.0,12.3,20,-99.99,,,-99.99,WSDL version 423,2013-02-24 19:45:00,
2013-02-24 11:50:00,55.0,14.7,30.18,ENE,76,6.9,11.0,20,-99.99,,,-99.99,WSDL version 423,2013-02-24 19:50:00,
2013-02-24 11:55:00,55.3,14.9,30.18,East,88,6.3,11.4,20,-99.99,,,-99.99,WSDL version 423,2013-02-24 19:55:00,
2013-02-24 12:00:00,55.3,14.9,30.18,NE,53,8.8,13.2,20,-99.99,,,-99.99,WSDL version 423,2013-02-24 20:00:00,
2013-02-24 12:05:00,55.0,14.7,30.18,ENE,78,5.7,13.2,20,-99.99,,,-99.99,WSDL version 423,2013-02-24 20:05:00,
2013-02-24 12:10:00,55.8,15.3,30.18,ENE,65,6.6,11.4,20,-99.99,,,-99.99,WSDL version 423,2013-02-24 20:10:00,
2013-02-24 12:15:00,55.6,15.2,30.18,NE,53,6.1,14.5,20,-99.99,,,-99.99,WSDL version 423,2013-02-24 20:15:00,
2013-02-24 12:20:00,56.2,15.7,30.18,ENE,73,5.9,14.5,20,-99.99,,,-99.99,WSDL version 423,2013-02-24 20:20:00,
2013-02-24 12:25:00,56.5,15.9,30.18,NNE,15,6.1,14.1,20,-99.99,,,-99.99,WSDL version 423,2013-02-24 20:25:00,
2013-02-24 12:30:00,56.7,15.7,30.18,East,85,6.9,14.1,20,-99.99,,,-99.99,WSDL version 423,2013-02-24 20:30:00,
2013-02-24 12:35:00,56.7,15.9,30.18,ESE,110,4.9,11.9,19,-99.99,,,-99.99,WSDL version 423,2013-02-24 20:35:00,
2013-02-24 12:40:00,56.2,15.5,30.18,North,350,9.5,15.0,20,-99.99,,,-99.99,WSDL version 423,2013-02-24 20:40:00,
2013-02-24 12:45:00,56.0,15.5,30.18,East,80,7.8,15.0,20,-99.99,,,-99.99,WSDL version 423,2013-02-24 20:45:00,
2013-02-24 12:50:00,56.3,15.8,30.18,NE,51,5.6,11.9,20,-99.99,,,-99.99,WSDL version 423,2013-02-24 20:50:00,
2013-02-24 12:55:00,56.4,15.9,30.18,North,5,10.1,14.1,20,-99.99,,,-99.99,WSDL version 423,2013-02-24 20:55:00,
2013-02-24 13:01:00,57.2,16.0,30.15,NE,55,5.3,15.0,19,-99.99,,,-99.99,WSDL version 423,2013-02-24 21:01:00,
2013-02-24 13:06:00,56.9,16.1,30.15,NNW,330,7.3,10.5,20,-99.99,,,-99.99,WSDL version 423,2013-02-24 21:06:00,
2013-02-24 13:11:00,57.1,16.0,30.15,NNE,23,5.2,11.4,20,-99.99,,,-99.99,WSDL version 423,2013-02-24 21:11:00,
2013-02-24 13:16:00,58.2,16.1,30.15,NE,55,3.2,11.4,19,-99.99,,,-99.99,WSDL version 423,2013-02-24 21:16:00,
2013-02-24 13:21:00,58.2,16.2,30.15,NE,56,5.4,8.7,19,-99.99,,,-99.99,WSDL version 423,2013-02-24 21:21:00,
2013-02-24 13:26:00,57.6,15.9,30.15,North,8,7.8,13.2,19,-99.99,,,-99.99,WSDL version 423,2013-02-24 21:26:00,
2013-02-24 13:31:00,57.7,15.8,30.15,North,6,5.7,13.2,19,-99.99,,,-99.99,WSDL version 423,2013-02-24 21:31:00,
2013-02-24 13:36:00,58.3,16.2,30.15,North,8,7.2,12.3,19,-99.99,,,-99.99,WSDL version 423,2013-02-24 21:36:00,
2013-02-24 13:41:00,58.4,16.3,30.15,NNE,15,8.9,13.2,19,-99.99,,,-99.99,WSDL version 423,2013-02-24 21:41:00,
2013-02-24 13:46:00,58.0,16.0,30.15,North,352,8.1,16.8,19,-99.99,,,-99.99,WSDL version 423,2013-02-24 21:46:00,
2013-02-24 13:51:00,58.0,15.9,30.15,NNW,343,9.9,16.8,19,-99.99,,,-99.99,WSDL version 423,2013-02-24 21:51:00,
2013-02-24 13:56:00,58.2,16.1,30.15,NNW,328,7.8,15.0,19,-99.99,,,-99.99,WSDL version 423,2013-02-24 21:56:00,
2013-02-24 14:01:00,59.2,16.9,30.12,NW,326,8.3,15.4,19,-99.99,,,-99.99,WSDL version 423,2013-02-24 22:01:00,
2013-02-24 14:06:00,58.8,16.7,30.12,NW,326,8.6,15.4,19,-99.99,,,-99.99,WSDL version 423,2013-02-24 22:06:00,
2013-02-24 14:11:00,59.0,16.8,30.12,North,355,7.8,13.2,19,-99.99,,,-99.99,WSDL version 423,2013-02-24 22:11:00,
2013-02-24 14:16:00,59.1,16.9,30.12,East,79,5.9,15.4,19,-99.99,,,-99.99,WSDL version 423,2013-02-24 22:16:00,
2013-02-24 14:21:00,59.1,16.9,30.12,East,79,7.5,15.4,19,-99.99,,,-99.99,WSDL version 423,2013-02-24 22:21:00,
2013-02-24 14:26:00,59.1,16.9,30.12,East,90,8.3,12.3,19,-99.99,,,-99.99,WSDL version 423,2013-02-24 22:26:00,
2013-02-24 14:31:00,59.3,17.0,30.12,NE,55,5.2,12.3,19,-99.99,,,-99.99,WSDL version 423,2013-02-24 22:31:00,
2013-02-24 14:36:00,59.0,16.8,30.12,East,82,7.6,12.3,19,-99.99,,,-99.99,WSDL version 423,2013-02-24 22:36:00,
2013-02-24 14:41:00,59.2,17.0,30.12,ENE,76,6.5,12.3,19,-99.99,,,-99.99,WSDL version 423,2013-02-24 22:41:00,
2013-02-24 14:46:00,59.5,17.2,30.12,East,83,4.9,10.1,19,-99.99,,,-99.99,WSDL version 423,2013-02-24 22:46:00,
2013-02-24 14:51:00,59.4,17.1,30.12,ENE,65,5.8,9.2,19,-99.99,,,-99.99,WSDL version 423,2013-02-24 22:51:00,
2013-02-24 14:56:00,59.7,17.4,30.12,ENE,73,6.5,9.6,19,-99.99,,,-99.99,WSDL version 423,2013-02-24 22:56:00,
2013-02-24 15:01:00,59.8,17.4,30.12,East,88,6.6,9.6,19,-99.99,,,-99.99,WSDL version 423,2013-02-24 23:01:00,
2013-02-24 15:06:00,59.5,17.2,30.12,NE,53,6.4,8.1,19,-99.99,,,-99.99,WSDL version 423,2013-02-24 23:06:00,
2013-02-24 15:11:00,59.8,17.4,30.12,ENE,73,4.2,8.1,19,-99.99,,,-99.99,WSDL version 423,2013-02-24 23:11:00,
2013-02-24 15:16:00,59.8,17.5,30.12,ENE,76,4.1,8.1,19,-99.99,,,-99.99,WSDL version 423,2013-02-24 23:16:00,
2013-02-24 15:21:00,60.3,17.9,30.12,East,83,6.8,9.6,19,-99.99,,,-99.99,WSDL version 423,2013-02-24 23:21:00,
2013-02-24 15:26:00,59.4,17.1,30.12,East,83,6.2,9.6,19,-99.99,,,-99.99,WSDL version 423,2013-02-24 23:26:00,
2013-02-24 15:31:00,59.5,17.2,30.15,East,84,5.8,10.1,19,-99.99,,,-99.99,WSDL version 423,2013-02-24 23:31:00,
2013-02-24 15:36:00,59.2,17.0,30.15,ENE,76,4.4,10.1,19,-99.99,,,-99.99,WSDL version 423,2013-02-24 23:36:00,
2013-02-24 15:41:00,59.5,17.3,30.15,ESE,119,7.0,11.0,19,-99.99,,,-99.99,WSDL version 423,2013-02-24 23:41:00,
2013-02-24 15:46:00,59.3,17.1,30.12,ESE,113,5.8,11.0,19,-99.99,,,-99.99,WSDL version 423,2013-02-24 23:46:00,
2013-02-24 15:51:00,59.4,17.1,30.12,East,101,7.8,13.2,19,-99.99,,,-99.99,WSDL version 423,2013-02-24 23:51:00,
2013-02-24 15:56:00,59.2,17.0,30.12,ESE,115,6.8,13.2,19,-99.99,,,-99.99,WSDL version 423,2013-02-24 23:56:00,
2013-02-24 16:01:00,59.2,17.0,30.15,East,95,5.5,12.8,19,-99.99,,,-99.99,WSDL version 423,2013-02-25 00:01:00,
2013-02-24 16:06:00,59.4,17.1,30.15,ESE,107,6.4,11.4,19,-99.99,,,-99.99,WSDL version 423,2013-02-25 00:06:00,
2013-02-24 16:11:00,59.2,17.0,30.15,SE,128,6.9,11.9,19,-99.99,,,-99.99,WSDL version 423,2013-02-25 00:11:00,
2013-02-24 16:16:00,58.8,16.6,30.15,East,98,9.1,14.5,19,-99.99,,,-99.99,WSDL version 423,2013-02-25 00:16:00,
2013-02-24 16:21:00,58.3,16.2,30.15,East,93,8.7,15.4,19,-99.99,,,-99.99,WSDL version 423,2013-02-25 00:21:00,
2013-02-24 16:26:00,58.1,16.0,30.15,East,87,8.2,15.4,19,-99.99,,,-99.99,WSDL version 423,2013-02-25 00:26:00,
2013-02-24 16:31:00,57.9,15.9,30.12,ENE,75,7.9,15.4,19,-99.99,,,-99.99,WSDL version 423,2013-02-25 00:31:00,
2013-02-24 16:36:00,57.6,15.7,30.12,East,93,8.2,14.5,19,-99.99,,,-99.99,WSDL version 423,2013-02-25 00:36:00,
2013-02-24 16:41:00,57.5,15.6,30.12,East,93,8.6,14.5,19,-99.99,,,-99.99,WSDL version 423,2013-02-25 00:41:00,
2013-02-24 16:46:00,57.4,15.5,30.12,East,90,5.5,12.8,19,-99.99,,,-99.99,WSDL version 423,2013-02-25 00:46:00,
2013-02-24 16:51:00,57.3,15.4,30.12,East,84,9.4,13.2,19,-99.99,,,-99.99,WSDL version 423,2013-02-25 00:51:00,
2013-02-24 16:56:00,57.0,16.1,30.12,East,80,7.8,13.2,20,-99.99,,,-99.99,WSDL version 423,2013-02-25 00:56:00,
2013-02-24 17:01:00,56.8,16.1,30.15,East,79,9.3,13.6,20,-99.99,,,-99.99,WSDL version 423,2013-02-25 01:01:00,
2013-02-24 17:06:00,56.5,15.9,30.15,East,101,8.6,15.0,20,-99.99,,,-99.99,WSDL version 423,2013-02-25 01:06:00,
2013-02-24 17:11:00,56.2,15.7,30.15,East,88,7.2,15.0,20,-99.99,,,-99.99,WSDL version 423,2013-02-25 01:11:00,
2013-02-24 17:16:00,55.9,15.5,30.15,East,80,6.2,11.0,20,-99.99,,,-99.99,WSDL version 423,2013-02-25 01:16:00,
2013-02-24 17:22:00,55.5,15.1,30.15,East,90,6.7,8.7,20,-99.99,,,-99.99,WSDL version 423,2013-02-25 01:22:00,
2013-02-24 17:27:00,55.0,14.7,30.15,East,95,6.2,8.7,20,-99.99,,,-99.99,WSDL version 423,2013-02-25 01:27:00,
2013-02-24 17:32:00,54.6,14.4,30.15,East,90,5.0,8.7,20,-99.99,,,-99.99,WSDL version 423,2013-02-25 01:32:00,
2013-02-24 17:37:00,54.1,14.0,30.15,East,79,4.9,8.3,20,-99.99,,,-99.99,WSDL version 423,2013-02-25 01:37:00,
2013-02-24 17:42:00,53.7,13.6,30.15,East,80,5.9,10.1,20,-99.99,,,-99.99,WSDL version 423,2013-02-25 01:42:00,
2013-02-24 17:47:00,53.4,14.3,30.15,East,90,6.0,10.5,21,-99.99,,,-99.99,WSDL version 423,2013-02-25 01:47:00,
2013-02-24 17:52:00,53.0,14.1,30.15,East,90,5.1,11.0,21,-99.99,,,-99.99,WSDL version 423,2013-02-25 01:52:00,
2013-02-24 17:57:00,52.7,13.8,30.15,East,96,4.0,11.0,21,-99.99,,,-99.99,WSDL version 423,2013-02-25 01:57:00,
2013-02-24 18:02:00,52.3,13.6,30.15,East,101,5.0,10.1,21,-99.99,,,-99.99,WSDL version 423,2013-02-25 02:02:00,
2013-02-24 18:07:00,52.0,13.3,30.15,ESE,105,5.0,10.1,21,-99.99,,,-99.99,WSDL version 423,2013-02-25 02:07:00,
2013-02-24 18:12:00,51.7,13.0,30.15,ESE,103,4.7,9.2,21,-99.99,,,-99.99,WSDL version 423,2013-02-25 02:12:00,
2013-02-24 18:17:00,51.4,12.8,30.15,ESE,107,4.3,8.7,21,-99.99,,,-99.99,WSDL version 423,2013-02-25 02:17:00,
2013-02-24 18:22:00,51.1,12.5,30.15,ESE,105,4.5,7.2,21,-99.99,,,-99.99,WSDL version 423,2013-02-25 02:22:00,
2013-02-24 18:27:00,50.9,12.4,30.15,East,101,5.6,8.1,21,-99.99,,,-99.99,WSDL version 423,2013-02-25 02:27:00,
2013-02-24 18:32:00,50.8,12.3,30.15,ESE,104,4.3,8.1,21,-99.99,,,-99.99,WSDL version 423,2013-02-25 02:32:00,
2013-02-24 18:37:00,50.5,12.1,30.15,ESE,113,4.3,7.6,21,-99.99,,,-99.99,WSDL version 423,2013-02-25 02:37:00,
2013-02-24 18:42:00,50.5,12.0,30.15,East,98,4.0,7.6,21,-99.99,,,-99.99,WSDL version 423,2013-02-25 02:42:00,
2013-02-24 18:47:00,50.5,12.0,30.15,East,87,5.8,8.7,21,-99.99,,,-99.99,WSDL version 423,2013-02-25 02:47:00,
2013-02-24 18:52:00,50.6,12.1,30.15,East,93,4.1,8.7,21,-99.99,,,-99.99,WSDL version 423,2013-02-25 02:52:00,
2013-02-24 18:57:00,50.5,12.0,30.15,East,95,4.9,8.7,21,-99.99,,,-99.99,WSDL version 423,2013-02-25 02:57:00,
2013-02-24 19:02:00,50.4,12.0,30.15,East,96,5.9,8.3,21,-99.99,,,-99.99,WSDL version 423,2013-02-25 03:02:00,
2013-02-24 19:07:00,50.4,11.9,30.15,East,98,5.4,8.1,21,-99.99,,,-99.99,WSDL version 423,2013-02-25 03:07:00,
2013-02-24 19:12:00,50.3,11.8,30.15,ESE,121,3.9,8.1,21,-99.99,,,-99.99,WSDL version 423,2013-02-25 03:12:00,
2013-02-24 19:17:00,49.9,11.5,30.15,SE,141,3.5,7.2,21,-99.99,,,-99.99,WSDL version 423,2013-02-25 03:17:00,
2013-02-24 19:22:00,49.2,10.9,30.15,SE,125,3.7,6.3,21,-99.99,,,-99.99,WSDL version 423,2013-02-25 03:22:00,
2013-02-24 19:27:00,48.8,10.6,30.15,ESE,115,4.6,7.2,21,-99.99,,,-99.99,WSDL version 423,2013-02-25 03:27:00,
2013-02-24 19:32:00,49.2,10.9,30.18,ESE,105,5.8,8.7,21,-99.99,,,-99.99,WSDL version 423,2013-02-25 03:32:00,
2013-02-24 19:37:00,49.5,11.2,30.18,ESE,104,5.1,10.1,21,-99.99,,,-99.99,WSDL version 423,2013-02-25 03:37:00,
2013-02-24 19:42:00,49.5,11.1,30.18,SE,143,4.3,10.1,21,-99.99,,,-99.99,WSDL version 423,2013-02-25 03:42:00,
2013-02-24 19:47:00,49.1,10.8,30.18,SSE,155,4.8,8.3,21,-99.99,,,-99.99,WSDL version 423,2013-02-25 03:47:00,
2013-02-24 19:52:00,48.9,10.7,30.18,SE,140,4.8,8.3,21,-99.99,,,-99.99,WSDL version 423,2013-02-25 03:52:00,
2013-02-24 19:57:00,48.8,10.6,30.18,SE,135,3.5,8.3,21,-99.99,,,-99.99,WSDL version 423,2013-02-25 03:57:00,
2013-02-24 20:02:00,48.7,10.5,30.18,SSE,166,3.8,7.6,21,-99.99,,,-99.99,WSDL version 423,2013-02-25 04:02:00,
2013-02-24 20:07:00,48.4,10.2,30.18,SE,128,3.3,7.6,21,-99.99,,,-99.99,WSDL version 423,2013-02-25 04:07:00,
2013-02-24 20:12:00,48.1,10.4,30.18,SSE,167,2.9,4.9,22,-99.99,,,-99.99,WSDL version 423,2013-02-25 04:12:00,
2013-02-24 20:17:00,47.8,10.8,30.18,SSE,158,2.9,5.4,22,-99.99,,,-99.99,WSDL version 423,2013-02-25 04:17:00,
2013-02-24 20:22:00,47.2,10.3,30.18,SSE,158,3.1,5.4,22,-99.99,,,-99.99,WSDL version 423,2013-02-25 04:22:00,
2013-02-24 20:27:00,46.6,9.8,30.18,SSE,158,4.0,6.3,22,-99.99,,,-99.99,WSDL version 423,2013-02-25 04:27:00,
2013-02-24 20:32:00,46.7,9.8,30.21,SSE,158,4.4,6.3,22,-99.99,,,-99.99,WSDL version 423,2013-02-25 04:32:00,
2013-02-24 20:37:00,46.9,10.0,30.21,South,183,4.1,8.1,22,-99.99,,,-99.99,WSDL version 423,2013-02-25 04:37:00,
2013-02-24 20:42:00,46.9,10.0,30.21,SSE,165,3.6,8.1,22,-99.99,,,-99.99,WSDL version 423,2013-02-25 04:42:00,
2013-02-24 20:47:00,46.8,9.9,30.18,SSW,194,4.0,6.3,22,-99.99,,,-99.99,WSDL version 423,2013-02-25 04:47:00,
2013-02-24 20:52:00,46.5,9.7,30.18,SSE,158,1.5,5.8,22,-99.99,,,-99.99,WSDL version 423,2013-02-25 04:52:00,
2013-02-24 20:57:00,46.2,9.5,30.18,South,174,3.2,5.4,22,-99.99,,,-99.99,WSDL version 423,2013-02-25 04:57:00,
2013-02-24 21:00:00,46.1,9.4,30.18,South,188,3.2,5.4,22,-99.99,,,-99.99,WSDL version 423,2013-02-25 05:00:00,
2013-02-24 21:03:00,46.1,9.4,30.18,South,180,3.0,5.4,22,-99.99,,,-99.99,WSDL version 423,2013-02-25 05:03:00,
2013-02-24 21:04:00,46.1,9.4,30.18,South,174,3.2,6.3,22,-99.99,,,-99.99,WSDL version 423,2013-02-25 05:04:00,
2013-02-24 21:06:00,46.1,9.3,30.18,South,185,4.1,6.3,22,-99.99,,,-99.99,WSDL version 423,2013-02-25 05:06:00,
2013-02-24 21:11:00,45.9,9.2,30.18,SSW,205,3.3,6.3,22,-99.99,,,-99.99,WSDL version 423,2013-02-25 05:11:00,
2013-02-24 21:16:00,45.5,8.9,30.21,SSW,203,1.6,5.4,22,-99.99,,,-99.99,WSDL version 423,2013-02-25 05:16:00,
2013-02-24 21:21:00,45.1,8.5,30.21,SSW,203,0.7,4.9,22,-99.99,,,-99.99,WSDL version 423,2013-02-25 05:21:00,
2013-02-24 21:26:00,44.7,8.2,30.21,SSW,203,3.0,4.9,22,-99.99,,,-99.99,WSDL version 423,2013-02-25 05:26:00,
2013-02-24 21:31:00,44.7,8.2,30.21,SSW,203,4.0,5.4,22,-99.99,,,-99.99,WSDL version 423,2013-02-25 05:31:00,
2013-02-24 21:36:00,45.2,8.6,30.21,SSW,203,4.4,7.6,22,-99.99,,,-99.99,WSDL version 423,2013-02-25 05:36:00,
2013-02-24 21:41:00,45.8,9.1,30.21,SSW,205,5.5,8.1,22,-99.99,,,-99.99,WSDL version 423,2013-02-25 05:41:00,
2013-02-24 21:46:00,46.3,9.6,30.21,SW,214,4.4,8.1,22,-99.99,,,-99.99,WSDL version 423,2013-02-25 05:46:00,
2013-02-24 21:51:00,46.6,9.8,30.21,SW,219,4.3,7.2,22,-99.99,,,-99.99,WSDL version 423,2013-02-25 05:51:00,
2013-02-24 21:56:00,46.5,9.7,30.21,SW,228,3.9,6.7,22,-99.99,,,-99.99,WSDL version 423,2013-02-25 05:56:00,
2013-02-24 22:01:00,46.2,9.4,30.21,SW,225,3.3,6.3,22,-99.99,,,-99.99,WSDL version 423,2013-02-25 06:01:00,
2013-02-24 22:06:00,45.9,9.2,30.21,SSW,203,2.9,6.3,22,-99.99,,,-99.99,WSDL version 423,2013-02-25 06:06:00,
2013-02-24 22:11:00,45.5,8.9,30.21,SSW,203,3.0,6.3,22,-99.99,,,-99.99,WSDL version 423,2013-02-25 06:11:00,
2013-02-24 22:16:00,45.2,8.6,30.21,South,180,0.0,5.4,22,-99.99,,,-99.99,WSDL version 423,2013-02-25 06:16:00,
2013-02-24 22:21:00,44.4,8.5,30.21,South,186,1.4,5.4,23,-99.99,,,-99.99,WSDL version 423,2013-02-25 06:21:00,
2013-02-24 22:26:00,43.8,8.4,30.21,SW,225,2.6,4.0,23,-99.99,,,-99.99,WSDL version 423,2013-02-25 06:26:00,
2013-02-24 22:31:00,43.5,8.1,30.21,SSE,160,2.0,4.0,23,-99.99,,,-99.99,WSDL version 423,2013-02-25 06:31:00,
2013-02-24 22:36:00,42.9,7.6,30.21,SSE,158,0.0,3.6,23,-99.99,,,-99.99,WSDL version 423,2013-02-25 06:36:00,
2013-02-24 22:41:00,42.4,7.2,30.21,SSE,158,0.0,2.7,23,-99.99,,,-99.99,WSDL version 423,2013-02-25 06:41:00,
2013-02-24 22:46:00,41.9,6.8,30.21,SSE,158,0.0,2.7,23,-99.99,,,-99.99,WSDL version 423,2013-02-25 06:46:00,
2013-02-24 22:51:00,41.8,6.7,30.21,SSE,158,1.2,3.6,23,-99.99,,,-99.99,WSDL version 423,2013-02-25 06:51:00,
2013-02-24 22:56:00,41.4,6.4,30.21,SSE,158,0.0,3.6,23,-99.99,,,-99.99,WSDL version 423,2013-02-25 06:56:00,
2013-02-24 23:01:00,41.2,6.2,30.21,SSE,158,0.7,2.7,23,-99.99,,,-99.99,WSDL version 423,2013-02-25 07:01:00,
2013-02-24 23:06:00,41.1,6.1,30.21,SSE,158,1.9,4.0,23,-99.99,,,-99.99,WSDL version 423,2013-02-25 07:06:00,
2013-02-24 23:11:00,40.6,5.7,30.21,SSE,158,0.0,4.0,23,-99.99,,,-99.99,WSDL version 423,2013-02-25 07:11:00,
2013-02-24 23:16:00,40.0,5.2,30.21,SSE,158,0.0,2.7,23,-99.99,,,-99.99,WSDL version 423,2013-02-25 07:16:00,
2013-02-24 23:21:00,39.3,4.6,30.21,SSE,158,1.4,3.1,23,-99.99,,,-99.99,WSDL version 423,2013-02-25 07:21:00,
2013-02-24 23:26:00,39.3,4.6,30.21,SSE,158,3.4,4.0,23,-99.99,,,-99.99,WSDL version 423,2013-02-25 07:26:00,
2013-02-24 23:31:00,39.5,4.8,30.21,SSE,158,0.4,4.0,23,-99.99,,,-99.99,WSDL version 423,2013-02-25 07:31:00,
2013-02-24 23:36:00,39.5,4.7,30.21,SSE,158,1.9,4.0,23,-99.99,,,-99.99,WSDL version 423,2013-02-25 07:36:00,
2013-02-24 23:41:00,39.7,5.0,30.21,SSE,158,3.1,4.0,23,-99.99,,,-99.99,WSDL version 423,2013-02-25 07:41:00,
2013-02-24 23:46:00,39.6,4.8,30.24,SSE,158,2.6,4.0,23,-99.99,,,-99.99,WSDL version 423,2013-02-25 07:46:00,
2013-02-24 23:51:00,39.2,4.5,30.24,SSE,158,0.0,3.6,23,-99.99,,,-99.99,WSDL version 423,2013-02-25 07:51:00,
2013-02-24 23:56:00,39.3,4.5,30.24,SSE,158,1.1,3.1,23,-99.99,,,-99.99,WSDL version 423,2013-02-25 07:56:00,